Time,TemperatureF,DewpointF,PressureIn,WindDirection,WindDirectionDegrees,WindSpeedMPH,WindSpeedGustMPH,Humidity,HourlyPrecipIn,Conditions,Clouds,dailyrainin,SolarRadiationWatts/m^2,SoftwareType,DateUTC
2013-03-29 00:00:00,37.1,30.9,30.26,WNW,300,0.0,2.0,78,0.00,,---,0.00,0.00,VWS V14.00,2013-03-29 04:00:00,
2013-03-29 00:05:00,37.2,31.0,30.26,WNW,300,0.0,0.0,78,0.00,,---,0.00,0.00,VWS V14.00,2013-03-29 04:05:00,
2013-03-29 00:10:00,37.2,31.0,30.26,WNW,300,0.0,0.0,78,0.00,,---,0.00,0.00,VWS V14.00,2013-03-29 04:10:00,
2013-03-29 00:15:00,37.1,30.9,30.26,WNW,300,0.0,0.0,78,0.00,,---,0.00,0.00,VWS V14.00,2013-03-29 04:15:00,
2013-03-29 00:20:00,37.1,30.9,30.26,WNW,300,0.0,0.0,78,0.00,,---,0.00,0.00,VWS V14.00,2013-03-29 04:20:00,
2013-03-29 00:25:00,37.1,30.9,30.26,WNW,300,0.0,0.0,78,0.00,,---,0.00,0.00,VWS V14.00,2013-03-29 04:25:00,
2013-03-29 00:30:00,37.1,30.9,30.26,WNW,300,0.0,0.0,78,0.00,,---,0.00,0.00,VWS V14.00,2013-03-29 04:30:00,
2013-03-29 00:36:00,37.1,30.9,30.26,WNW,300,0.0,0.0,78,0.00,,---,0.00,0.00,VWS V14.00,2013-03-29 04:36:00,
2013-03-29 00:41:00,37.0,30.8,30.27,WNW,300,0.0,0.0,78,0.00,,---,0.00,0.00,VWS V14.00,2013-03-29 04:41:00,
2013-03-29 00:46:00,36.9,31.0,30.26,WNW,300,0.0,0.0,79,0.00,,---,0.00,0.00,VWS V14.00,2013-03-29 04:46:00,
2013-03-29 00:51:00,36.8,30.9,30.26,WNW,300,0.0,0.0,79,0.00,,---,0.00,0.00,VWS V14.00,2013-03-29 04:51:00,
2013-03-29 00:56:00,36.7,31.1,30.26,WNW,300,0.0,0.0,80,0.00,,---,0.00,0.00,VWS V14.00,2013-03-29 04:56:00,
2013-03-29 01:00:00,36.6,31.0,30.27,WNW,300,0.0,0.0,80,0.00,,---,0.00,0.00,VWS V14.00,2013-03-29 05:00:00,
2013-03-29 01:01:00,36.6,31.0,30.27,WNW,300,0.0,0.0,80,0.00,,---,0.00,0.00,VWS V14.00,2013-03-29 05:01:00,
2013-03-29 01:06:00,36.7,31.1,30.26,WNW,300,0.0,0.0,80,0.00,,---,0.00,0.00,VWS V14.00,2013-03-29 05:06:00,
2013-03-29 01:11:00,36.8,30.9,30.27,WNW,300,0.0,0.0,79,0.00,,---,0.00,0.00,VWS V14.00,2013-03-29 05:11:00,
2013-03-29 01:16:00,36.8,30.9,30.27,WNW,300,0.0,0.0,79,0.00,,---,0.00,0.00,VWS V14.00,2013-03-29 05:16:00,
2013-03-29 01:21:00,36.7,31.1,30.27,WNW,300,0.0,0.0,80,0.00,,---,0.00,0.00,VWS V14.00,2013-03-29 05:21:00,
2013-03-29 01:26:00,36.5,30.9,30.27,WNW,300,0.0,2.0,80,0.00,,---,0.00,0.00,VWS V14.00,2013-03-29 05:26:00,
2013-03-29 01:30:00,36.5,30.9,30.27,WNW,300,0.0,2.0,80,0.00,,---,0.00,0.00,VWS V14.00,2013-03-29 05:30:00,
2013-03-29 01:31:00,36.5,31.2,30.27,WNW,300,0.0,0.0,81,0.00,,---,0.00,0.00,VWS V14.00,2013-03-29 05:31:00,
2013-03-29 01:36:00,36.5,31.2,30.27,WNW,300,0.0,0.0,81,0.00,,---,0.00,0.00,VWS V14.00,2013-03-29 05:36:00,
2013-03-29 01:42:00,36.4,31.1,30.27,WNW,300,0.0,0.0,81,0.00,,---,0.00,0.00,VWS V14.00,2013-03-29 05:42:00,
2013-03-29 01:47:00,36.5,30.9,30.27,WNW,300,0.0,0.0,80,0.00,,---,0.00,0.00,VWS V14.00,2013-03-29 05:47:00,
2013-03-29 01:52:00,36.5,30.9,30.27,WNW,300,0.0,0.0,80,0.00,,---,0.00,0.00,VWS V14.00,2013-03-29 05:52:00,
2013-03-29 01:57:00,36.6,30.7,30.27,WNW,300,0.0,0.0,79,0.00,,---,0.00,0.00,VWS V14.00,2013-03-29 05:57:00,
2013-03-29 02:00:00,36.7,30.8,30.26,WNW,300,0.0,0.0,79,0.00,,---,0.00,0.00,VWS V14.00,2013-03-29 06:00:00,
2013-03-29 02:02:00,36.7,30.8,30.27,WNW,300,0.0,0.0,79,0.00,,---,0.00,0.00,VWS V14.00,2013-03-29 06:02:00,
2013-03-29 02:07:00,36.6,30.4,30.27,WNW,300,0.0,0.0,78,0.00,,---,0.00,0.00,VWS V14.00,2013-03-29 06:07:00,
2013-03-29 02:12:00,36.6,30.7,30.26,WNW,300,0.0,0.0,79,0.00,,---,0.00,0.00,VWS V14.00,2013-03-29 06:12:00,
2013-03-29 02:17:00,36.6,30.7,30.26,WNW,300,0.0,0.0,79,0.00,,---,0.00,0.00,VWS V14.00,2013-03-29 06:17:00,
2013-03-29 02:22:00,36.6,30.7,30.26,WNW,300,0.0,0.0,79,0.00,,---,0.00,0.00,VWS V14.00,2013-03-29 06:22:00,
2013-03-29 02:27:00,36.6,30.7,30.27,WNW,300,0.0,0.0,79,0.00,,---,0.00,0.00,VWS V14.00,2013-03-29 06:27:00,
2013-03-29 02:30:00,36.5,30.9,30.26,WNW,300,1.0,2.0,80,0.00,,---,0.00,0.00,VWS V14.00,2013-03-29 06:30:00,
2013-03-29 02:32:00,36.5,30.9,30.27,WNW,300,1.0,2.0,80,0.00,,---,0.00,0.00,VWS V14.00,2013-03-29 06:32:00,
2013-03-29 02:37:00,36.5,31.2,30.26,WNW,300,0.0,2.0,81,0.00,,---,0.00,0.00,VWS V14.00,2013-03-29 06:37:00,
2013-03-29 02:42:00,36.6,31.3,30.27,WNW,300,0.0,2.0,81,0.00,,---,0.00,0.00,VWS V14.00,2013-03-29 06:42:00,
2013-03-29 02:47:00,36.6,31.3,30.27,WNW,300,0.0,2.0,81,0.00,,---,0.00,0.00,VWS V14.00,2013-03-29 06:47:00,
2013-03-29 02:52:00,36.6,31.0,30.26,WNW,300,0.0,2.0,80,0.00,,---,0.00,0.00,VWS V14.00,2013-03-29 06:52:00,
2013-03-29 02:57:00,36.5,30.9,30.26,WNW,300,0.0,2.0,80,0.00,,---,0.00,0.00,VWS V14.00,2013-03-29 06:57:00,
2013-03-29 03:00:00,36.5,31.2,30.26,WNW,300,0.0,2.0,81,0.00,,---,0.00,0.00,VWS V14.00,2013-03-29 07:00:00,
2013-03-29 03:02:00,36.5,31.2,30.27,WNW,300,0.0,0.0,81,0.00,,---,0.00,0.00,VWS V14.00,2013-03-29 07:02:00,
2013-03-29 03:07:00,36.4,31.1,30.26,WNW,300,0.0,0.0,81,0.00,,---,0.00,0.00,VWS V14.00,2013-03-29 07:07:00,
2013-03-29 03:12:00,36.3,31.0,30.26,WNW,300,0.0,0.0,81,0.00,,---,0.00,0.00,VWS V14.00,2013-03-29 07:12:00,
2013-03-29 03:17:00,36.2,30.9,30.26,WNW,300,0.0,0.0,81,0.00,,---,0.00,0.00,VWS V14.00,2013-03-29 07:17:00,
2013-03-29 03:23:00,36.2,30.9,30.26,WNW,300,0.0,0.0,81,0.00,,---,0.00,0.00,VWS V14.00,2013-03-29 07:23:00,
2013-03-29 03:28:00,36.1,30.8,30.26,WNW,300,0.0,0.0,81,0.00,,---,0.00,0.00,VWS V14.00,2013-03-29 07:28:00,
2013-03-29 03:30:00,36.1,30.5,30.26,WNW,300,0.0,0.0,80,0.00,,---,0.00,0.00,VWS V14.00,2013-03-29 07:30:00,
2013-03-29 03:33:00,36.1,30.5,30.26,WNW,300,0.0,0.0,80,0.00,,---,0.00,0.00,VWS V14.00,2013-03-29 07:33:00,
2013-03-29 03:38:00,36.0,30.4,30.26,WNW,300,0.0,0.0,80,0.00,,---,0.00,0.00,VWS V14.00,2013-03-29 07:38:00,
2013-03-29 03:43:00,35.9,30.6,30.26,WNW,300,0.0,0.0,81,0.00,,---,0.00,0.00,VWS V14.00,2013-03-29 07:43:00,
2013-03-29 03:48:00,35.7,30.8,30.26,WNW,300,0.0,0.0,82,0.00,,---,0.00,0.00,VWS V14.00,2013-03-29 07:48:00,
2013-03-29 03:53:00,35.7,30.8,30.26,WNW,300,0.0,0.0,82,0.00,,---,0.00,0.00,VWS V14.00,2013-03-29 07:53:00,
2013-03-29 03:58:00,35.8,30.9,30.26,WNW,300,0.0,0.0,82,0.00,,---,0.00,0.00,VWS V14.00,2013-03-29 07:58:00,
2013-03-29 04:00:00,35.8,31.1,30.25,WNW,300,0.0,1.0,83,0.00,,---,0.00,0.00,VWS V14.00,2013-03-29 08:00:00,
2013-03-29 04:03:00,35.9,31.2,30.25,WNW,300,0.0,2.0,83,0.00,,---,0.00,0.00,VWS V14.00,2013-03-29 08:03:00,
2013-03-29 04:08:00,36.0,31.0,30.25,WNW,300,1.0,2.0,82,0.00,,---,0.00,0.00,VWS V14.00,2013-03-29 08:08:00,
2013-03-29 04:13:00,36.0,31.0,30.25,WNW,300,1.0,2.0,82,0.00,,---,0.00,0.00,VWS V14.00,2013-03-29 08:13:00,
2013-03-29 04:18:00,36.1,31.1,30.25,WNW,300,2.0,4.0,82,0.00,,---,0.00,0.00,VWS V14.00,2013-03-29 08:18:00,
2013-03-29 04:23:00,36.2,30.9,30.25,WNW,300,1.0,4.0,81,0.00,,---,0.00,0.00,VWS V14.00,2013-03-29 08:23:00,
2013-03-29 04:28:00,36.2,31.2,30.25,WNW,300,0.0,4.0,82,0.00,,---,0.00,0.00,VWS V14.00,2013-03-29 08:28:00,
2013-03-29 04:30:00,36.0,31.0,30.25,WNW,300,0.0,4.0,82,0.00,,---,0.00,0.00,VWS V14.00,2013-03-29 08:30:00,
2013-03-29 04:33:00,36.0,31.0,30.25,WNW,300,0.0,1.0,82,0.00,,---,0.00,0.00,VWS V14.00,2013-03-29 08:33:00,
2013-03-29 04:38:00,35.9,30.6,30.25,WNW,300,0.0,2.0,81,0.00,,---,0.00,0.00,VWS V14.00,2013-03-29 08:38:00,
2013-03-29 04:43:00,36.1,30.5,30.25,WNW,300,0.0,2.0,80,0.00,,---,0.00,0.00,VWS V14.00,2013-03-29 08:43:00,
2013-03-29 04:48:00,36.2,30.9,30.25,WNW,300,0.0,2.0,81,0.00,,---,0.00,0.00,VWS V14.00,2013-03-29 08:48:00,
2013-03-29 04:53:00,36.2,30.9,30.25,WNW,300,0.0,2.0,81,0.00,,---,0.00,0.00,VWS V14.00,2013-03-29 08:53:00,
2013-03-29 04:58:00,35.9,31.0,30.25,WNW,300,0.0,2.0,82,0.00,,---,0.00,0.00,VWS V14.00,2013-03-29 08:58:00,
2013-03-29 05:00:00,35.7,31.0,30.25,WNW,300,0.0,2.0,83,0.00,,---,0.00,0.00,VWS V14.00,2013-03-29 09:00:00,
2013-03-29 05:03:00,35.7,31.0,30.25,WNW,300,0.0,0.0,83,0.00,,---,0.00,0.00,VWS V14.00,2013-03-29 09:03:00,
2013-03-29 05:08:00,35.5,31.1,30.25,WNW,300,0.0,0.0,84,0.00,,---,0.00,0.00,VWS V14.00,2013-03-29 09:08:00,
2013-03-29 05:13:00,35.3,31.0,30.25,WNW,300,0.0,0.0,84,0.00,,---,0.00,0.00,VWS V14.00,2013-03-29 09:13:00,
2013-03-29 05:18:00,35.2,31.1,30.25,WNW,300,0.0,0.0,85,0.00,,---,0.00,0.00,VWS V14.00,2013-03-29 09:18:00,
2013-03-29 05:23:00,35.1,31.0,30.25,WNW,300,0.0,0.0,85,0.00,,---,0.00,0.00,VWS V14.00,2013-03-29 09:23:00,
2013-03-29 05:28:00,35.0,31.2,30.25,WNW,300,0.0,0.0,86,0.00,,---,0.00,0.00,VWS V14.00,2013-03-29 09:28:00,
2013-03-29 05:30:00,35.0,31.2,30.25,WNW,300,0.0,0.0,86,0.00,,---,0.00,0.00,VWS V14.00,2013-03-29 09:30:00,
2013-03-29 05:33:00,35.0,31.2,30.25,WNW,300,0.0,0.0,86,0.00,,---,0.00,0.00,VWS V14.00,2013-03-29 09:33:00,
2013-03-29 05:38:00,34.9,31.1,30.25,WNW,300,0.0,0.0,86,0.00,,---,0.00,0.00,VWS V14.00,2013-03-29 09:38:00,
2013-03-29 05:43:00,34.9,31.1,30.25,WNW,300,0.0,0.0,86,0.00,,---,0.00,0.00,VWS V14.00,2013-03-29 09:43:00,
2013-03-29 05:48:00,34.9,31.1,30.25,WNW,300,0.0,0.0,86,0.00,,---,0.00,0.00,VWS V14.00,2013-03-29 09:48:00,
2013-03-29 05:53:00,34.8,31.0,30.25,WNW,300,0.0,0.0,86,0.00,,---,0.00,0.00,VWS V14.00,2013-03-29 09:53:00,
2013-03-29 05:58:00,34.7,31.0,30.25,WNW,300,0.0,0.0,86,0.00,,---,0.00,0.00,VWS V14.00,2013-03-29 09:58:00,
2013-03-29 06:00:00,34.8,31.0,30.25,WNW,300,0.0,0.0,86,0.00,,---,0.00,0.00,VWS V14.00,2013-03-29 10:00:00,
2013-03-29 06:03:00,34.8,31.0,30.25,WNW,300,0.0,0.0,86,0.00,,---,0.00,0.00,VWS V14.00,2013-03-29 10:03:00,
2013-03-29 06:08:00,35.0,31.0,30.25,WNW,300,0.0,0.0,85,0.00,,---,0.00,0.00,VWS V14.00,2013-03-29 10:08:00,
2013-03-29 06:13:00,35.3,31.2,30.25,WNW,300,0.0,0.0,85,0.00,,---,0.00,0.00,VWS V14.00,2013-03-29 10:13:00,
2013-03-29 06:18:00,35.4,31.1,30.25,WNW,300,0.0,0.0,84,0.00,,---,0.00,0.00,VWS V14.00,2013-03-29 10:18:00,
2013-03-29 06:23:00,35.6,31.2,30.25,WNW,300,0.0,2.0,84,0.00,,---,0.00,0.00,VWS V14.00,2013-03-29 10:23:00,
2013-03-29 06:28:00,35.7,31.0,30.25,WNW,300,0.0,2.0,83,0.00,,---,0.00,0.00,VWS V14.00,2013-03-29 10:28:00,
2013-03-29 06:30:00,35.8,31.1,30.25,WNW,300,0.0,2.0,83,0.00,,---,0.00,0.00,VWS V14.00,2013-03-29 10:30:00,
2013-03-29 06:33:00,35.7,31.0,30.25,WNW,300,0.0,0.0,83,0.00,,---,0.00,0.00,VWS V14.00,2013-03-29 10:33:00,
2013-03-29 06:38:00,35.7,31.4,30.25,WNW,300,0.0,0.0,84,0.00,,---,0.00,0.00,VWS V14.00,2013-03-29 10:38:00,
2013-03-29 06:43:00,35.6,31.2,30.25,WNW,300,0.0,0.0,84,0.00,,---,0.00,0.00,VWS V14.00,2013-03-29 10:43:00,
2013-03-29 06:48:00,35.5,31.1,30.25,WNW,300,0.0,0.0,84,0.00,,---,0.00,0.00,VWS V14.00,2013-03-29 10:48:00,
2013-03-29 06:53:00,35.4,31.1,30.25,WNW,300,0.0,0.0,84,0.00,,---,0.00,0.00,VWS V14.00,2013-03-29 10:53:00,
2013-03-29 06:58:00,35.3,31.0,30.25,WNW,300,0.0,0.0,84,0.00,,---,0.00,0.00,VWS V14.00,2013-03-29 10:58:00,
2013-03-29 07:00:00,35.3,31.0,30.25,WNW,300,0.0,0.0,84,0.00,,---,0.00,0.00,VWS V14.00,2013-03-29 11:00:00,
2013-03-29 07:04:00,35.2,30.9,30.25,WNW,300,0.0,0.0,84,0.00,,---,0.00,0.00,VWS V14.00,2013-03-29 11:04:00,
2013-03-29 07:09:00,35.2,31.1,30.25,WNW,300,0.0,0.0,85,0.00,,---,0.00,0.00,VWS V14.00,2013-03-29 11:09:00,
2013-03-29 07:14:00,35.2,31.1,30.25,WNW,300,0.0,0.0,85,0.00,,---,0.00,0.00,VWS V14.00,2013-03-29 11:14:00,
2013-03-29 07:19:00,35.2,31.1,30.25,WNW,298,0.0,1.0,85,0.00,,---,0.00,0.00,VWS V14.00,2013-03-29 11:19:00,
2013-03-29 07:24:00,35.3,31.0,30.26,WSW,254,0.0,2.0,84,0.00,,---,0.00,5.00,VWS V14.00,2013-03-29 11:24:00,
2013-03-29 07:29:00,35.5,31.1,30.26,WSW,254,0.0,2.0,84,0.00,,---,0.00,9.00,VWS V14.00,2013-03-29 11:29:00,
2013-03-29 07:30:00,35.5,31.1,30.26,WSW,254,0.0,2.0,84,0.00,,---,0.00,11.00,VWS V14.00,2013-03-29 11:30:00,
2013-03-29 07:34:00,35.6,31.2,30.26,WSW,254,0.0,1.0,84,0.00,,---,0.00,11.00,VWS V14.00,2013-03-29 11:34:00,
2013-03-29 07:39:00,35.7,31.4,30.26,WSW,254,0.0,1.0,84,0.00,,---,0.00,14.00,VWS V14.00,2013-03-29 11:39:00,
2013-03-29 07:44:00,35.7,31.4,30.26,WSW,254,0.0,1.0,84,0.00,,---,0.00,16.00,VWS V14.00,2013-03-29 11:44:00,
2013-03-29 07:49:00,35.7,31.6,30.26,WSW,254,0.0,1.0,85,0.00,,---,0.00,18.00,VWS V14.00,2013-03-29 11:49:00,
2013-03-29 07:54:00,35.7,31.6,30.26,WSW,254,0.0,1.0,85,0.00,,---,0.00,25.00,VWS V14.00,2013-03-29 11:54:00,
2013-03-29 07:59:00,35.7,31.6,30.26,WSW,254,0.0,1.0,85,0.00,,---,0.00,28.00,VWS V14.00,2013-03-29 11:59:00,
2013-03-29 08:00:00,35.7,31.6,30.26,WSW,254,0.0,1.0,85,0.00,,---,0.00,30.00,VWS V14.00,2013-03-29 12:00:00,
2013-03-29 08:04:00,35.7,31.4,30.26,WSW,254,0.0,0.0,84,0.00,,---,0.00,33.00,VWS V14.00,2013-03-29 12:04:00,
2013-03-29 08:09:00,35.8,31.7,30.26,WSW,254,0.0,0.0,85,0.00,,---,0.00,40.00,VWS V14.00,2013-03-29 12:09:00,
2013-03-29 08:14:00,35.9,31.5,30.26,WSW,254,0.0,0.0,84,0.00,,---,0.00,44.00,VWS V14.00,2013-03-29 12:14:00,
2013-03-29 08:19:00,36.0,31.9,30.26,WSW,254,0.0,0.0,85,0.00,,---,0.00,51.00,VWS V14.00,2013-03-29 12:19:00,
2013-03-29 08:24:00,36.2,32.1,30.26,WSW,254,0.0,0.0,85,0.00,,---,0.00,60.00,VWS V14.00,2013-03-29 12:24:00,
2013-03-29 08:29:00,36.3,31.9,30.26,WSW,254,0.0,0.0,84,0.00,,---,0.00,74.00,VWS V14.00,2013-03-29 12:29:00,
2013-03-29 08:30:00,36.4,32.0,30.26,WSW,254,0.0,0.0,84,0.00,,---,0.00,77.00,VWS V14.00,2013-03-29 12:30:00,
2013-03-29 08:34:00,36.5,32.1,30.26,WSW,254,0.0,0.0,84,0.00,,---,0.00,83.00,VWS V14.00,2013-03-29 12:34:00,
2013-03-29 08:39:00,36.8,32.1,30.26,WSW,254,0.0,0.0,83,0.00,,---,0.00,93.00,VWS V14.00,2013-03-29 12:39:00,
2013-03-29 08:44:00,37.1,32.1,30.26,WSW,254,0.0,0.0,82,0.00,,---,0.00,105.00,VWS V14.00,2013-03-29 12:44:00,
2013-03-29 08:49:00,37.5,32.2,30.27,WSW,239,0.0,0.0,81,0.00,,---,0.00,121.00,VWS V14.00,2013-03-29 12:49:00,
2013-03-29 08:54:00,37.8,32.2,30.27,WSW,239,0.0,0.0,80,0.00,,---,0.00,135.00,VWS V14.00,2013-03-29 12:54:00,
2013-03-29 08:59:00,38.2,32.3,30.27,WSW,239,1.0,2.0,79,0.00,,---,0.00,149.00,VWS V14.00,2013-03-29 12:59:00,
2013-03-29 09:00:00,38.3,32.4,30.27,WSW,239,0.0,2.0,79,0.00,,---,0.00,167.00,VWS V14.00,2013-03-29 13:00:00,
2013-03-29 09:04:00,38.6,32.7,30.27,WSW,239,0.0,1.0,79,0.00,,---,0.00,178.00,VWS V14.00,2013-03-29 13:04:00,
2013-03-29 09:09:00,39.1,32.8,30.27,WSW,239,2.0,3.0,78,0.00,,---,0.00,193.00,VWS V14.00,2013-03-29 13:09:00,
2013-03-29 09:14:00,39.6,33.0,30.26,SW,216,2.0,3.0,77,0.00,,---,0.00,218.00,VWS V14.00,2013-03-29 13:14:00,
2013-03-29 09:19:00,40.0,32.4,30.26,SW,236,0.0,4.0,74,0.00,,---,0.00,186.00,VWS V14.00,2013-03-29 13:19:00,
2013-03-29 09:24:00,40.3,32.0,30.26,SW,236,0.0,4.0,72,0.00,,---,0.00,216.00,VWS V14.00,2013-03-29 13:24:00,
2013-03-29 09:29:00,40.8,32.8,30.26,SW,234,1.0,4.0,73,0.00,,---,0.00,519.00,VWS V14.00,2013-03-29 13:29:00,
2013-03-29 09:30:00,41.0,32.7,30.26,SW,236,0.0,4.0,72,0.00,,---,0.00,301.00,VWS V14.00,2013-03-29 13:30:00,
2013-03-29 09:34:00,41.4,32.7,30.26,SSW,196,2.0,5.0,71,0.00,,---,0.00,380.00,VWS V14.00,2013-03-29 13:34:00,
2013-03-29 09:40:00,42.0,32.9,30.26,WSW,240,1.0,5.0,70,0.00,,---,0.00,482.00,VWS V14.00,2013-03-29 13:40:00,
2013-03-29 09:45:00,42.3,32.5,30.26,West,267,1.0,5.0,68,0.00,,---,0.00,236.00,VWS V14.00,2013-03-29 13:45:00,
2013-03-29 09:50:00,42.3,32.5,30.26,West,267,1.0,5.0,68,0.00,,---,0.00,255.00,VWS V14.00,2013-03-29 13:50:00,
2013-03-29 09:55:00,42.5,32.7,30.26,WSW,239,2.0,5.0,68,0.00,,---,0.00,248.00,VWS V14.00,2013-03-29 13:55:00,
2013-03-29 10:00:00,42.8,33.3,30.26,WSW,242,1.0,5.0,69,0.00,,---,0.00,631.00,VWS V14.00,2013-03-29 14:00:00,
2013-03-29 10:05:00,43.1,32.5,30.26,SW,219,1.0,3.0,66,0.00,,---,0.00,244.00,VWS V14.00,2013-03-29 14:05:00,
2013-03-29 10:10:00,43.3,32.3,30.26,West,265,2.0,4.0,65,0.00,,---,0.00,204.00,VWS V14.00,2013-03-29 14:10:00,
2013-03-29 10:15:00,43.4,33.2,30.25,SSW,211,1.0,4.0,67,0.00,,---,0.00,327.00,VWS V14.00,2013-03-29 14:15:00,
2013-03-29 10:20:00,43.8,33.2,30.25,South,186,0.0,4.0,66,0.00,,---,0.00,503.00,VWS V14.00,2013-03-29 14:20:00,
2013-03-29 10:25:00,44.5,33.5,30.25,ESE,119,1.0,4.0,65,0.00,,---,0.00,647.00,VWS V14.00,2013-03-29 14:25:00,
2013-03-29 10:30:00,45.1,34.4,30.25,SSE,158,1.0,5.0,66,0.00,,---,0.00,594.00,VWS V14.00,2013-03-29 14:30:00,
2013-03-29 10:35:00,45.5,33.2,30.25,South,183,0.0,4.0,62,0.00,,---,0.00,640.00,VWS V14.00,2013-03-29 14:35:00,
2013-03-29 10:40:00,46.1,34.2,30.25,North,349,2.0,4.0,63,0.00,,---,0.00,645.00,VWS V14.00,2013-03-29 14:40:00,
2013-03-29 10:45:00,46.3,33.6,30.25,WNW,283,0.0,4.0,61,0.00,,---,0.00,657.00,VWS V14.00,2013-03-29 14:45:00,
2013-03-29 10:50:00,46.8,33.7,30.25,SSE,161,1.0,4.0,60,0.00,,---,0.00,673.00,VWS V14.00,2013-03-29 14:50:00,
2013-03-29 10:55:00,47.3,35.0,30.25,WSW,245,3.0,4.0,62,0.00,,---,0.00,686.00,VWS V14.00,2013-03-29 14:55:00,
2013-03-29 11:00:00,47.7,33.7,30.25,WSW,242,3.0,4.0,58,0.00,,---,0.00,693.00,VWS V14.00,2013-03-29 15:00:00,
2013-03-29 11:05:00,47.7,33.2,30.25,West,260,2.0,10.0,57,0.00,,---,0.00,703.00,VWS V14.00,2013-03-29 15:05:00,
2013-03-29 11:10:00,47.7,33.2,30.25,South,179,1.0,10.0,57,0.00,,---,0.00,715.00,VWS V14.00,2013-03-29 15:10:00,
2013-03-29 11:15:00,47.9,32.5,30.25,South,188,2.0,10.0,55,0.00,,---,0.00,724.00,VWS V14.00,2013-03-29 15:15:00,
2013-03-29 11:20:00,48.2,32.8,30.25,NW,325,5.0,11.0,55,0.00,,---,0.00,740.00,VWS V14.00,2013-03-29 15:20:00,
2013-03-29 11:25:00,48.5,33.1,30.25,NW,307,4.0,11.0,55,0.00,,---,0.00,752.00,VWS V14.00,2013-03-29 15:25:00,
2013-03-29 11:30:00,48.9,33.0,30.24,WSW,248,7.0,15.0,54,0.00,,---,0.00,768.00,VWS V14.00,2013-03-29 15:30:00,
2013-03-29 11:35:00,49.7,33.8,30.24,WNW,284,6.0,9.0,54,0.00,,---,0.00,926.00,VWS V14.00,2013-03-29 15:35:00,
2013-03-29 11:40:00,49.4,31.6,30.24,West,265,0.0,9.0,50,0.00,,---,0.00,432.00,VWS V14.00,2013-03-29 15:40:00,
2013-03-29 11:45:00,48.9,31.6,30.24,West,274,6.0,10.0,51,0.00,,---,0.00,144.00,VWS V14.00,2013-03-29 15:45:00,
2013-03-29 11:50:00,48.3,31.0,30.24,North,355,7.0,10.0,51,0.00,,---,0.00,142.00,VWS V14.00,2013-03-29 15:50:00,
2013-03-29 11:55:00,47.9,30.7,30.24,WNW,285,4.0,11.0,51,0.00,,---,0.00,160.00,VWS V14.00,2013-03-29 15:55:00,
2013-03-29 12:00:00,47.8,30.6,30.24,North,5,6.0,11.0,51,0.00,,---,0.00,192.00,VWS V14.00,2013-03-29 16:00:00,
2013-03-29 12:05:00,47.9,29.7,30.24,West,275,0.0,6.0,49,0.00,,---,0.00,267.00,VWS V14.00,2013-03-29 16:05:00,
2013-03-29 12:10:00,48.3,30.0,30.24,WNW,299,6.0,8.0,49,0.00,,---,0.00,213.00,VWS V14.00,2013-03-29 16:10:00,
2013-03-29 12:15:00,48.4,29.6,30.24,WNW,294,4.0,9.0,48,0.00,,---,0.00,308.00,VWS V14.00,2013-03-29 16:15:00,
2013-03-29 12:20:00,48.5,29.7,30.23,WSW,252,6.0,13.0,48,0.00,,---,0.00,315.00,VWS V14.00,2013-03-29 16:20:00,
2013-03-29 12:25:00,49.9,30.5,30.23,NW,310,6.0,14.0,47,0.00,,---,0.00,1079.00,VWS V14.00,2013-03-29 16:25:00,
2013-03-29 12:30:00,50.6,29.5,30.23,WNW,288,13.0,14.0,44,0.00,,---,0.00,1004.00,VWS V14.00,2013-03-29 16:30:00,
2013-03-29 12:35:00,50.3,29.2,30.23,NNW,340,5.0,13.0,44,0.00,,---,0.00,299.00,VWS V14.00,2013-03-29 16:35:00,
2013-03-29 12:40:00,49.5,28.0,30.23,WNW,299,5.0,13.0,43,0.00,,---,0.00,237.00,VWS V14.00,2013-03-29 16:40:00,
2013-03-29 12:45:00,49.2,29.3,30.23,West,278,5.0,13.0,46,0.00,,---,0.00,244.00,VWS V14.00,2013-03-29 16:45:00,
2013-03-29 12:50:00,49.9,31.5,30.23,WNW,298,6.0,13.0,49,0.00,,---,0.00,942.00,VWS V14.00,2013-03-29 16:50:00,
2013-03-29 12:55:00,51.4,30.2,30.22,West,266,7.0,13.0,44,0.00,,---,0.00,1143.00,VWS V14.00,2013-03-29 16:55:00,
2013-03-29 13:00:00,51.6,29.3,30.22,West,268,4.0,13.0,42,0.00,,---,0.00,281.00,VWS V14.00,2013-03-29 17:00:00,
2013-03-29 13:06:00,50.5,28.9,30.22,West,259,8.0,11.0,43,0.00,,---,0.00,260.00,VWS V14.00,2013-03-29 17:06:00,
2013-03-29 13:11:00,49.6,28.0,30.22,WNW,282,8.0,15.0,43,0.00,,---,0.00,343.00,VWS V14.00,2013-03-29 17:11:00,
2013-03-29 13:16:00,49.8,30.4,30.22,West,273,5.0,15.0,47,0.00,,---,0.00,1111.00,VWS V14.00,2013-03-29 17:16:00,
2013-03-29 13:21:00,50.7,28.5,30.22,WNW,283,8.0,15.0,42,0.00,,---,0.00,323.00,VWS V14.00,2013-03-29 17:21:00,
2013-03-29 13:26:00,50.2,27.4,30.21,West,262,4.0,15.0,41,0.00,,---,0.00,241.00,VWS V14.00,2013-03-29 17:26:00,
2013-03-29 13:30:00,49.7,27.6,30.21,West,277,11.0,15.0,42,0.00,,---,0.00,288.00,VWS V14.00,2013-03-29 17:30:00,
2013-03-29 13:31:00,49.7,27.6,30.21,WSW,252,7.0,15.0,42,0.00,,---,0.00,271.00,VWS V14.00,2013-03-29 17:31:00,
2013-03-29 13:36:00,49.7,27.6,30.21,West,265,8.0,12.0,42,0.00,,---,0.00,403.00,VWS V14.00,2013-03-29 17:36:00,
2013-03-29 13:41:00,50.2,28.0,30.21,WSW,248,4.0,13.0,42,0.00,,---,0.00,397.00,VWS V14.00,2013-03-29 17:41:00,
2013-03-29 13:46:00,50.0,28.4,30.21,West,262,10.0,14.0,43,0.00,,---,0.00,260.00,VWS V14.00,2013-03-29 17:46:00,
2013-03-29 13:51:00,49.7,27.6,30.21,West,272,6.0,14.0,42,0.00,,---,0.00,353.00,VWS V14.00,2013-03-29 17:51:00,
2013-03-29 13:56:00,50.4,27.6,30.20,WSW,252,6.0,15.0,41,0.00,,---,0.00,1158.00,VWS V14.00,2013-03-29 17:56:00,
2013-03-29 14:00:00,51.7,29.9,30.20,West,259,8.0,15.0,43,0.00,,---,0.00,1171.00,VWS V14.00,2013-03-29 18:00:00,
2013-03-29 14:01:00,51.6,29.9,30.20,WSW,238,5.0,15.0,43,0.00,,---,0.00,1179.00,VWS V14.00,2013-03-29 18:01:00,
2013-03-29 14:06:00,52.0,29.0,30.20,West,268,13.0,16.0,41,0.00,,---,0.00,436.00,VWS V14.00,2013-03-29 18:06:00,
2013-03-29 14:12:00,50.9,28.1,30.20,WSW,254,7.0,16.0,41,0.00,,---,0.00,364.00,VWS V14.00,2013-03-29 18:12:00,
2013-03-29 14:17:00,50.8,28.5,30.20,NW,307,8.0,16.0,42,0.00,,---,0.00,378.00,VWS V14.00,2013-03-29 18:17:00,
2013-03-29 14:22:00,51.4,28.5,30.19,NW,319,9.0,16.0,41,0.00,,---,0.00,359.00,VWS V14.00,2013-03-29 18:22:00,
2013-03-29 14:27:00,51.3,28.4,30.19,WNW,301,6.0,16.0,41,0.00,,---,0.00,404.00,VWS V14.00,2013-03-29 18:27:00,
2013-03-29 14:30:00,51.4,27.9,30.19,West,267,3.0,16.0,40,0.00,,---,0.00,332.00,VWS V14.00,2013-03-29 18:30:00,
2013-03-29 14:32:00,51.3,28.4,30.19,West,259,5.0,9.0,41,0.00,,---,0.00,357.00,VWS V14.00,2013-03-29 18:32:00,
2013-03-29 14:37:00,51.5,30.3,30.19,West,276,16.0,17.0,44,0.00,,---,0.00,1041.00,VWS V14.00,2013-03-29 18:37:00,
2013-03-29 14:42:00,51.4,27.9,30.19,West,260,7.0,18.0,40,0.00,,---,0.00,431.00,VWS V14.00,2013-03-29 18:42:00,
2013-03-29 14:47:00,51.2,28.3,30.19,West,269,12.0,18.0,41,0.00,,---,0.00,582.00,VWS V14.00,2013-03-29 18:47:00,
2013-03-29 14:52:00,51.1,27.6,30.18,WNW,301,11.0,18.0,40,0.00,,---,0.00,357.00,VWS V14.00,2013-03-29 18:52:00,
2013-03-29 14:57:00,51.1,29.4,30.18,West,269,13.0,18.0,43,0.00,,---,0.00,870.00,VWS V14.00,2013-03-29 18:57:00,
2013-03-29 15:00:00,51.9,29.0,30.18,WSW,242,5.0,18.0,41,0.00,,---,0.00,1025.00,VWS V14.00,2013-03-29 19:00:00,
2013-03-29 15:02:00,52.1,29.1,30.18,West,276,11.0,11.0,41,0.00,,---,0.00,299.00,VWS V14.00,2013-03-29 19:02:00,
2013-03-29 15:07:00,51.5,28.0,30.18,WSW,256,5.0,14.0,40,0.00,,---,0.00,214.00,VWS V14.00,2013-03-29 19:07:00,
2013-03-29 15:12:00,50.8,27.4,30.18,West,265,4.0,14.0,40,0.00,,---,0.00,158.00,VWS V14.00,2013-03-29 19:12:00,
2013-03-29 15:17:00,50.4,27.0,30.17,WNW,289,8.0,14.0,40,0.00,,---,0.00,179.00,VWS V14.00,2013-03-29 19:17:00,
2013-03-29 15:22:00,50.2,26.8,30.17,West,275,8.0,14.0,40,0.00,,---,0.00,234.00,VWS V14.00,2013-03-29 19:22:00,
2013-03-29 15:27:00,50.4,27.6,30.17,WSW,251,11.0,17.0,41,0.00,,---,0.00,267.00,VWS V14.00,2013-03-29 19:27:00,
2013-03-29 15:30:00,50.4,27.0,30.17,West,274,5.0,17.0,40,0.00,,---,0.00,262.00,VWS V14.00,2013-03-29 19:30:00,
2013-03-29 15:32:00,50.4,27.0,30.17,WNW,288,7.0,12.0,40,0.00,,---,0.00,265.00,VWS V14.00,2013-03-29 19:32:00,
2013-03-29 15:37:00,51.2,29.5,30.17,NNW,333,6.0,12.0,43,0.00,,---,0.00,947.00,VWS V14.00,2013-03-29 19:37:00,
2013-03-29 15:42:00,52.7,29.1,30.17,West,281,7.0,15.0,40,0.00,,---,0.00,912.00,VWS V14.00,2013-03-29 19:42:00,
2013-03-29 15:47:00,53.0,28.1,30.17,WSW,257,8.0,15.0,38,0.00,,---,0.00,297.00,VWS V14.00,2013-03-29 19:47:00,
2013-03-29 15:52:00,52.0,26.5,30.17,West,271,5.0,15.0,37,0.00,,---,0.00,234.00,VWS V14.00,2013-03-29 19:52:00,
2013-03-29 15:57:00,51.3,27.8,30.17,West,260,7.0,15.0,40,0.00,,---,0.00,213.00,VWS V14.00,2013-03-29 19:57:00,
2013-03-29 16:00:00,50.8,27.4,30.17,West,267,6.0,15.0,40,0.00,,---,0.00,200.00,VWS V14.00,2013-03-29 20:00:00,
2013-03-29 16:02:00,50.8,27.4,30.17,SW,233,10.0,12.0,40,0.00,,---,0.00,192.00,VWS V14.00,2013-03-29 20:02:00,
2013-03-29 16:07:00,50.4,27.0,30.16,West,261,8.0,12.0,40,0.00,,---,0.00,188.00,VWS V14.00,2013-03-29 20:07:00,
2013-03-29 16:13:00,50.3,26.9,30.16,West,263,5.0,12.0,40,0.00,,---,0.00,211.00,VWS V14.00,2013-03-29 20:13:00,
2013-03-29 16:18:00,50.6,27.2,30.16,WNW,292,13.0,14.0,40,0.00,,---,0.00,192.00,VWS V14.00,2013-03-29 20:18:00,
2013-03-29 16:23:00,50.6,26.6,30.16,NW,306,2.0,14.0,39,0.00,,---,0.00,174.00,VWS V14.00,2013-03-29 20:23:00,
2013-03-29 16:28:00,51.1,26.4,30.16,NW,308,6.0,14.0,38,0.00,,---,0.00,652.00,VWS V14.00,2013-03-29 20:28:00,
2013-03-29 16:30:00,51.4,26.7,30.16,West,277,12.0,14.0,38,0.00,,---,0.00,183.00,VWS V14.00,2013-03-29 20:30:00,
2013-03-29 16:33:00,51.3,26.6,30.16,West,275,9.0,13.0,38,0.00,,---,0.00,190.00,VWS V14.00,2013-03-29 20:33:00,
2013-03-29 16:38:00,51.0,26.9,30.16,WNW,296,12.0,19.0,39,0.00,,---,0.00,211.00,VWS V14.00,2013-03-29 20:38:00,
2013-03-29 16:43:00,50.9,28.1,30.16,WNW,302,12.0,19.0,41,0.00,,---,0.00,229.00,VWS V14.00,2013-03-29 20:43:00,
2013-03-29 16:48:00,50.9,26.2,30.16,WNW,295,8.0,19.0,38,0.00,,---,0.00,188.00,VWS V14.00,2013-03-29 20:48:00,
2013-03-29 16:53:00,51.5,28.0,30.16,WNW,283,8.0,19.0,40,0.00,,---,0.00,610.00,VWS V14.00,2013-03-29 20:53:00,
2013-03-29 16:58:00,52.6,27.7,30.15,WSW,246,10.0,19.0,38,0.00,,---,0.00,545.00,VWS V14.00,2013-03-29 20:58:00,
2013-03-29 17:00:00,52.8,26.6,30.15,WNW,302,2.0,19.0,36,0.00,,---,0.00,248.00,VWS V14.00,2013-03-29 21:00:00,
2013-03-29 17:03:00,52.7,27.2,30.15,WSW,243,11.0,11.0,37,0.00,,---,0.00,304.00,VWS V14.00,2013-03-29 21:03:00,
2013-03-29 17:08:00,52.7,27.8,30.15,West,265,7.0,11.0,38,0.00,,---,0.00,573.00,VWS V14.00,2013-03-29 21:08:00,
2013-03-29 17:13:00,53.0,27.4,30.15,NW,307,9.0,13.0,37,0.00,,---,0.00,529.00,VWS V14.00,2013-03-29 21:13:00,
2013-03-29 17:18:00,52.4,26.9,30.15,NW,311,7.0,13.0,37,0.00,,---,0.00,174.00,VWS V14.00,2013-03-29 21:18:00,
2013-03-29 17:23:00,51.7,26.3,30.15,West,271,9.0,15.0,37,0.00,,---,0.00,376.00,VWS V14.00,2013-03-29 21:23:00,
2013-03-29 17:28:00,51.5,26.8,30.15,WNW,298,7.0,15.0,38,0.00,,---,0.00,332.00,VWS V14.00,2013-03-29 21:28:00,
2013-03-29 17:30:00,51.4,26.7,30.15,WNW,296,8.0,15.0,38,0.00,,---,0.00,153.00,VWS V14.00,2013-03-29 21:30:00,
2013-03-29 17:33:00,51.1,26.4,30.15,NW,317,7.0,12.0,38,0.00,,---,0.00,130.00,VWS V14.00,2013-03-29 21:33:00,
2013-03-29 17:38:00,50.7,26.0,30.16,West,279,9.0,15.0,38,0.00,,---,0.00,169.00,VWS V14.00,2013-03-29 21:38:00,
2013-03-29 17:43:00,50.8,26.8,30.16,West,263,8.0,15.0,39,0.00,,---,0.00,264.00,VWS V14.00,2013-03-29 21:43:00,
2013-03-29 17:48:00,51.0,26.9,30.16,West,260,11.0,15.0,39,0.00,,---,0.00,165.00,VWS V14.00,2013-03-29 21:48:00,
2013-03-29 17:53:00,50.8,26.8,30.16,WSW,254,10.0,15.0,39,0.00,,---,0.00,139.00,VWS V14.00,2013-03-29 21:53:00,
2013-03-29 17:58:00,50.4,26.4,30.16,West,275,6.0,15.0,39,0.00,,---,0.00,137.00,VWS V14.00,2013-03-29 21:58:00,
2013-03-29 18:00:00,50.3,26.9,30.16,WNW,290,4.0,15.0,40,0.00,,---,0.00,246.00,VWS V14.00,2013-03-29 22:00:00,
2013-03-29 18:03:00,50.4,26.4,30.16,West,281,9.0,15.0,39,0.00,,---,0.00,325.00,VWS V14.00,2013-03-29 22:03:00,
2013-03-29 18:08:00,50.9,27.5,30.16,WNW,290,4.0,15.0,40,0.00,,---,0.00,295.00,VWS V14.00,2013-03-29 22:08:00,
2013-03-29 18:13:00,50.8,26.8,30.16,WNW,294,8.0,15.0,39,0.00,,---,0.00,132.00,VWS V14.00,2013-03-29 22:13:00,
2013-03-29 18:18:00,50.6,26.6,30.16,West,277,8.0,15.0,39,0.00,,---,0.00,134.00,VWS V14.00,2013-03-29 22:18:00,
2013-03-29 18:23:00,50.1,26.7,30.16,WNW,283,16.0,16.0,40,0.00,,---,0.00,86.00,VWS V14.00,2013-03-29 22:23:00,
2013-03-29 18:28:00,49.7,26.4,30.16,WNW,290,7.0,16.0,40,0.00,,---,0.00,93.00,VWS V14.00,2013-03-29 22:28:00,
2013-03-29 18:30:00,49.6,26.3,30.16,WNW,297,7.0,16.0,40,0.00,,---,0.00,125.00,VWS V14.00,2013-03-29 22:30:00,
2013-03-29 18:33:00,49.6,26.9,30.16,West,281,6.0,9.0,41,0.00,,---,0.00,93.00,VWS V14.00,2013-03-29 22:33:00,
2013-03-29 18:38:00,49.5,26.8,30.16,NW,304,4.0,11.0,41,0.00,,---,0.00,74.00,VWS V14.00,2013-03-29 22:38:00,
2013-03-29 18:43:00,49.3,26.0,30.16,West,279,6.0,11.0,40,0.00,,---,0.00,67.00,VWS V14.00,2013-03-29 22:43:00,
2013-03-29 18:49:00,49.2,27.1,30.16,WNW,286,2.0,11.0,42,0.00,,---,0.00,62.00,VWS V14.00,2013-03-29 22:49:00,
2013-03-29 18:54:00,49.1,26.4,30.16,WNW,288,4.0,11.0,41,0.00,,---,0.00,53.00,VWS V14.00,2013-03-29 22:54:00,
2013-03-29 18:59:00,49.0,26.9,30.17,WNW,290,4.0,11.0,42,0.00,,---,0.00,47.00,VWS V14.00,2013-03-29 22:59:00,
2013-03-29 19:00:00,49.0,26.3,30.17,WNW,282,6.0,11.0,41,0.00,,---,0.00,44.00,VWS V14.00,2013-03-29 23:00:00,
2013-03-29 19:04:00,49.0,26.9,30.17,WNW,294,2.0,6.0,42,0.00,,---,0.00,35.00,VWS V14.00,2013-03-29 23:04:00,
2013-03-29 19:09:00,48.8,27.3,30.17,WNW,294,5.0,6.0,43,0.00,,---,0.00,26.00,VWS V14.00,2013-03-29 23:09:00,
2013-03-29 19:14:00,48.6,26.6,30.17,WNW,303,2.0,6.0,42,0.00,,---,0.00,21.00,VWS V14.00,2013-03-29 23:14:00,
2013-03-29 19:19:00,48.4,27.0,30.17,WNW,303,4.0,6.0,43,0.00,,---,0.00,23.00,VWS V14.00,2013-03-29 23:19:00,
2013-03-29 19:24:00,48.2,26.2,30.17,NW,311,2.0,6.0,42,0.00,,---,0.00,23.00,VWS V14.00,2013-03-29 23:24:00,
2013-03-29 19:29:00,47.9,26.5,30.16,WNW,303,6.0,7.0,43,0.00,,---,0.00,14.00,VWS V14.00,2013-03-29 23:29:00,
2013-03-29 19:30:00,47.9,25.9,30.17,WNW,296,4.0,7.0,42,0.00,,---,0.00,11.00,VWS V14.00,2013-03-29 23:30:00,
2013-03-29 19:34:00,47.7,26.9,30.16,WNW,294,4.0,5.0,44,0.00,,---,0.00,9.00,VWS V14.00,2013-03-29 23:34:00,
2013-03-29 19:39:00,47.2,26.4,30.17,WNW,296,5.0,6.0,44,0.00,,---,0.00,5.00,VWS V14.00,2013-03-29 23:39:00,
2013-03-29 19:44:00,46.8,26.0,30.17,WNW,297,2.0,6.0,44,0.00,,---,0.00,0.00,VWS V14.00,2013-03-29 23:44:00,
2013-03-29 19:49:00,46.4,26.2,30.17,WNW,300,1.0,6.0,45,0.00,,---,0.00,0.00,VWS V14.00,2013-03-29 23:49:00,
2013-03-29 19:54:00,46.1,26.0,30.17,WNW,300,2.0,6.0,45,0.00,,---,0.00,0.00,VWS V14.00,2013-03-29 23:54:00,
2013-03-29 19:59:00,46.0,25.9,30.17,WNW,299,2.0,6.0,45,0.00,,---,0.00,0.00,VWS V14.00,2013-03-29 23:59:00,
2013-03-29 20:00:00,46.1,26.0,30.17,WNW,299,2.0,6.0,45,0.00,,---,0.00,0.00,VWS V14.00,2013-03-30 00:00:00,
2013-03-29 20:04:00,46.0,25.9,30.17,WNW,299,1.0,4.0,45,0.00,,---,0.00,0.00,VWS V14.00,2013-03-30 00:04:00,
2013-03-29 20:09:00,46.1,26.0,30.17,WNW,299,0.0,4.0,45,0.00,,---,0.00,0.00,VWS V14.00,2013-03-30 00:09:00,
2013-03-29 20:14:00,46.1,26.0,30.17,WNW,299,0.0,4.0,45,0.00,,---,0.00,0.00,VWS V14.00,2013-03-30 00:14:00,
2013-03-29 20:19:00,46.0,25.9,30.17,WNW,299,1.0,4.0,45,0.00,,---,0.00,0.00,VWS V14.00,2013-03-30 00:19:00,
2013-03-29 20:24:00,45.6,25.5,30.17,WNW,299,2.0,4.0,45,0.00,,---,0.00,0.00,VWS V14.00,2013-03-30 00:24:00,
2013-03-29 20:29:00,45.3,25.8,30.17,WNW,299,2.0,4.0,46,0.00,,---,0.00,0.00,VWS V14.00,2013-03-30 00:29:00,
2013-03-29 20:30:00,45.2,25.7,30.17,WNW,299,1.0,4.0,46,0.00,,---,0.00,0.00,VWS V14.00,2013-03-30 00:30:00,
2013-03-29 20:34:00,45.1,25.6,30.17,WNW,299,1.0,2.0,46,0.00,,---,0.00,0.00,VWS V14.00,2013-03-30 00:34:00,
2013-03-29 20:40:00,44.8,25.3,30.17,WNW,299,2.0,2.0,46,0.00,,---,0.00,0.00,VWS V14.00,2013-03-30 00:40:00,
2013-03-29 20:45:00,44.6,25.6,30.17,WNW,299,1.0,2.0,47,0.00,,---,0.00,0.00,VWS V14.00,2013-03-30 00:45:00,
2013-03-29 20:50:00,44.4,25.5,30.18,WNW,299,0.0,2.0,47,0.00,,---,0.00,0.00,VWS V14.00,2013-03-30 00:50:00,
2013-03-29 20:55:00,44.3,25.4,30.18,WNW,299,0.0,2.0,47,0.00,,---,0.00,0.00,VWS V14.00,2013-03-30 00:55:00,
2013-03-29 21:00:00,44.2,25.3,30.18,WNW,299,0.0,2.0,47,0.00,,---,0.00,0.00,VWS V14.00,2013-03-30 01:00:00,
2013-03-29 21:05:00,44.2,25.3,30.18,WNW,299,1.0,2.0,47,0.00,,---,0.00,0.00,VWS V14.00,2013-03-30 01:05:00,
2013-03-29 21:10:00,44.0,25.6,30.18,WNW,299,1.0,2.0,48,0.00,,---,0.00,0.00,VWS V14.00,2013-03-30 01:10:00,
2013-03-29 21:15:00,43.6,25.7,30.18,WNW,299,0.0,2.0,49,0.00,,---,0.00,0.00,VWS V14.00,2013-03-30 01:15:00,
2013-03-29 21:20:00,42.8,25.5,30.18,WNW,299,0.0,2.0,50,0.00,,---,0.00,0.00,VWS V14.00,2013-03-30 01:20:00,
2013-03-29 21:25:00,42.1,25.8,30.18,WNW,299,0.0,2.0,52,0.00,,---,0.00,0.00,VWS V14.00,2013-03-30 01:25:00,
2013-03-29 21:30:00,41.5,26.1,30.18,WNW,299,0.0,2.0,54,0.00,,---,0.00,0.00,VWS V14.00,2013-03-30 01:30:00,
2013-03-29 21:35:00,40.8,25.9,30.19,WNW,299,0.0,0.0,55,0.00,,---,0.00,0.00,VWS V14.00,2013-03-30 01:35:00,
2013-03-29 21:40:00,40.0,25.6,30.18,WNW,299,0.0,1.0,56,0.00,,---,0.00,0.00,VWS V14.00,2013-03-30 01:40:00,
2013-03-29 21:45:00,39.4,25.9,30.19,WNW,299,0.0,1.0,58,0.00,,---,0.00,0.00,VWS V14.00,2013-03-30 01:45:00,
2013-03-29 21:50:00,39.1,26.0,30.19,WNW,299,0.0,1.0,59,0.00,,---,0.00,0.00,VWS V14.00,2013-03-30 01:50:00,
2013-03-29 21:55:00,38.9,26.2,30.19,WNW,299,0.0,1.0,60,0.00,,---,0.00,0.00,VWS V14.00,2013-03-30 01:55:00,
2013-03-29 22:00:00,38.7,26.8,30.19,WNW,299,0.0,1.0,62,0.00,,---,0.00,0.00,VWS V14.00,2013-03-30 02:00:00,
2013-03-29 22:05:00,38.2,26.7,30.19,WNW,299,0.0,0.0,63,0.00,,---,0.00,0.00,VWS V14.00,2013-03-30 02:05:00,
2013-03-29 22:10:00,37.9,26.8,30.19,WNW,299,0.0,0.0,64,0.00,,---,0.00,0.00,VWS V14.00,2013-03-30 02:10:00,
2013-03-29 22:15:00,37.8,26.4,30.20,NNW,345,1.0,7.0,63,0.00,,---,0.00,0.00,VWS V14.00,2013-03-30 02:15:00,
2013-03-29 22:20:00,37.4,25.6,30.19,NNW,345,0.0,7.0,62,0.00,,---,0.00,0.00,VWS V14.00,2013-03-30 02:20:00,
2013-03-29 22:25:00,37.5,26.1,30.19,NNW,345,2.0,7.0,63,0.00,,---,0.00,0.00,VWS V14.00,2013-03-30 02:25:00,
2013-03-29 22:30:00,37.2,26.9,30.19,NNW,345,0.0,7.0,66,0.00,,---,0.00,0.00,VWS V14.00,2013-03-30 02:30:00,
2013-03-29 22:35:00,36.8,26.9,30.20,NNW,345,0.0,0.0,67,0.00,,---,0.00,0.00,VWS V14.00,2013-03-30 02:35:00,
2013-03-29 22:40:00,36.3,26.0,30.20,NNW,345,0.0,0.0,66,0.00,,---,0.00,0.00,VWS V14.00,2013-03-30 02:40:00,
2013-03-29 22:45:00,35.6,25.7,30.20,NNW,344,1.0,1.0,67,0.00,,---,0.00,0.00,VWS V14.00,2013-03-30 02:45:00,
2013-03-29 22:50:00,35.1,26.3,30.20,NNW,344,1.0,2.0,70,0.00,,---,0.00,0.00,VWS V14.00,2013-03-30 02:50:00,
2013-03-29 22:55:00,35.2,26.8,30.20,NW,322,1.0,4.0,71,0.00,,---,0.00,0.00,VWS V14.00,2013-03-30 02:55:00,
2013-03-29 23:00:00,35.6,26.8,30.21,NW,322,0.0,4.0,70,0.00,,---,0.00,0.00,VWS V14.00,2013-03-30 03:00:00,
2013-03-29 23:05:00,35.7,26.9,30.21,NW,319,1.0,4.0,70,0.00,,---,0.00,0.00,VWS V14.00,2013-03-30 03:05:00,
2013-03-29 23:10:00,35.6,26.8,30.21,NW,319,2.0,4.0,70,0.00,,---,0.00,0.00,VWS V14.00,2013-03-30 03:10:00,
2013-03-29 23:15:00,35.3,26.5,30.21,NW,319,0.0,4.0,70,0.00,,---,0.00,0.00,VWS V14.00,2013-03-30 03:15:00,
2013-03-29 23:20:00,35.1,26.7,30.21,NW,319,0.0,4.0,71,0.00,,---,0.00,0.00,VWS V14.00,2013-03-30 03:20:00,
2013-03-29 23:25:00,35.0,26.9,30.21,NW,319,0.0,4.0,72,0.00,,---,0.00,0.00,VWS V14.00,2013-03-30 03:25:00,
2013-03-29 23:30:00,34.9,26.5,30.21,NW,319,0.0,4.0,71,0.00,,---,0.00,0.00,VWS V14.00,2013-03-30 03:30:00,
2013-03-29 23:36:00,34.7,26.6,30.21,NW,319,0.0,0.0,72,0.00,,---,0.00,0.00,VWS V14.00,2013-03-30 03:36:00,
2013-03-29 23:41:00,34.3,26.6,30.21,NW,319,0.0,0.0,73,0.00,,---,0.00,0.00,VWS V14.00,2013-03-30 03:41:00,
2013-03-29 23:46:00,33.6,25.9,30.21,NW,319,0.0,0.0,73,0.00,,---,0.00,0.00,VWS V14.00,2013-03-30 03:46:00,
2013-03-29 23:51:00,33.2,26.5,30.21,NW,319,0.0,2.0,76,0.00,,---,0.00,0.00,VWS V14.00,2013-03-30 03:51:00,
2013-03-29 23:56:00,33.2,26.8,30.21,NW,319,0.0,2.0,77,0.00,,---,0.00,0.00,VWS V14.00,2013-03-30 03:56:00,